When you browse on this site, cookies collect data to enhance your experience and personalize the content and advertising you see.
Visit our Privacy Policy to learn more. By continuing to use the site, you agree to this use of cookies and data.
  • In Czech Republic
  • List of Countries
  • For 7 days
  • Water Temperature
  • Satellite Maps
  • Weather Map
  • Weather Widgets
  • user-avatar
    Login

    Hourly Weather Wadzhir

    Today, 21 March, Thursday

    Time Temperature Precipitation Wind Pressure Humidity
    00:00 +36°C° 0 mm 6 mps 734 mmHg 34%
    01:00 +34°C° 0 mm 6 mps 734 mmHg 41%
    02:00 +33°C° 0 mm 6 mps 734 mmHg 49%
    03:00 +32°C° 0 mm 6 mps 734 mmHg 56%
    04:00 +30°C° 0 mm 6 mps 734 mmHg 59%
    05:00 +29°C° 0 mm 6 mps 735 mmHg 63%
    06:00 +29°C° 0 mm 6 mps 735 mmHg 67%
    07:00 +30°C° 0 mm 6 mps 735 mmHg 63%
    08:00 +32°C° 0 mm 6 mps 736 mmHg 60%
    09:00 +32°C° 0 mm 7 mps 737 mmHg 57%
    10:00 +34°C° 0 mm 6 mps 736 mmHg 50%
    11:00 +36°C° 0 mm 6 mps 736 mmHg 43%
    12:00 +39°C° 0 mm 5 mps 736 mmHg 35%
    13:00 +40°C° 0 mm 5 mps 735 mmHg 31%
    14:00 +41°C° 0 mm 4 mps 734 mmHg 27%
    15:00 +42°C° 0 mm 4 mps 733 mmHg 23%
    16:00 +42°C° 0 mm 4 mps 733 mmHg 22%
    17:00 +42°C° 0 mm 4 mps 732 mmHg 21%
    18:00 +42°C° 0 mm 4 mps 732 mmHg 20%
    19:00 +41°C° 0 mm 4 mps 732 mmHg 20%
    20:00 +41°C° 0 mm 4 mps 733 mmHg 21%
    21:00 +40°C° 0 mm 4 mps 733 mmHg 21%
    22:00 +37°C° 0 mm 5 mps 733 mmHg 33%
    23:00 +35°C° 0 mm 7 mps 734 mmHg 46%

    Tomorrow, 22 March, Friday

    Time Temperature Precipitation Wind Pressure Humidity
    00:00 +33°C° 0 mm 9 mps 734 mmHg 58%
    01:00 +32°C° 0 mm 9 mps 734 mmHg 60%
    02:00 +32°C° 0 mm 8 mps 734 mmHg 62%
    03:00 +30°C° 0 mm 7 mps 734 mmHg 64%
    04:00 +30°C° 0 mm 7 mps 734 mmHg 67%
    05:00 +29°C° 0 mm 6 mps 734 mmHg 70%
    06:00 +29°C° 0 mm 6 mps 735 mmHg 72%
    07:00 +30°C° 0 mm 6 mps 736 mmHg 68%
    08:00 +32°C° 0 mm 6 mps 736 mmHg 63%
    09:00 +33°C° 0 mm 6 mps 737 mmHg 59%
    10:00 +34°C° 0 mm 5 mps 737 mmHg 52%
    11:00 +36°C° 0 mm 5 mps 736 mmHg 44%
    12:00 +39°C° 0 mm 5 mps 736 mmHg 37%
    13:00 +40°C° 0 mm 4 mps 735 mmHg 33%
    14:00 +41°C° 0 mm 4 mps 734 mmHg 28%
    15:00 +42°C° 0 mm 4 mps 733 mmHg 24%
    16:00 +42°C° 0 mm 4 mps 733 mmHg 23%
    17:00 +42°C° 0 mm 5 mps 732 mmHg 23%
    18:00 +42°C° 0 mm 5 mps 732 mmHg 22%
    19:00 +41°C° 0 mm 5 mps 733 mmHg 23%
    20:00 +40°C° 0 mm 4 mps 733 mmHg 24%
    21:00 +40°C° 0 mm 4 mps 734 mmHg 25%
    22:00 +38°C° 0 mm 6 mps 734 mmHg 33%
    23:00 +36°C° 0 mm 7 mps 735 mmHg 40%

    Day after tomorrow, 23 March, Saturday

    Time Temperature Precipitation Wind Pressure Humidity
    00:00 +35°C° 0 mm 9 mps 735 mmHg 48%
    01:00 +34°C° 0 mm 8 mps 735 mmHg 52%
    02:00 +32°C° 0 mm 7 mps 735 mmHg 56%
    03:00 +30°C° 0 mm 7 mps 734 mmHg 61%
    04:00 +30°C° 0 mm 6 mps 735 mmHg 63%
    05:00 +29°C° 0 mm 6 mps 735 mmHg 66%
    06:00 +29°C° 0 mm 6 mps 736 mmHg 69%
    07:00 +29°C° 0 mm 6 mps 736 mmHg 65%
    08:00 +30°C° 0 mm 6 mps 737 mmHg 62%
    09:00 +32°C° 0 mm 6 mps 737 mmHg 59%
    10:00 +33°C° 0 mm 6 mps 737 mmHg 52%
    11:00 +35°C° 0 mm 6 mps 737 mmHg 45%
    12:00 +37°C° 0 mm 5 mps 736 mmHg 39%
    13:00 +39°C° 0 mm 5 mps 735 mmHg 35%
    14:00 +40°C° 0 mm 4 mps 734 mmHg 31%
    15:00 +40°C° 0 mm 4 mps 733 mmHg 28%
    16:00 +41°C° 0 mm 4 mps 733 mmHg 26%
    17:00 +41°C° 0 mm 4 mps 733 mmHg 25%
    18:00 +41°C° 0 mm 4 mps 733 mmHg 24%
    19:00 +40°C° 0 mm 4 mps 733 mmHg 25%
    20:00 +38°C° 0 mm 4 mps 734 mmHg 26%
    21:00 +38°C° 0 mm 4 mps 734 mmHg 28%
    22:00 +37°C° 0 mm 5 mps 734 mmHg 32%
    23:00 +36°C° 0 mm 7 mps 734 mmHg 37%

    24 March, Sunday

    Time Temperature Precipitation Wind Pressure Humidity
    00:00 +35°C° 0 mm 8 mps 735 mmHg 42%
    01:00 +34°C° 0 mm 8 mps 734 mmHg 48%
    02:00 +32°C° 0 mm 7 mps 734 mmHg 54%
    03:00 +30°C° 0 mm 7 mps 734 mmHg 59%
    04:00 +30°C° 0 mm 7 mps 734 mmHg 62%
    05:00 +29°C° 0 mm 6 mps 735 mmHg 64%
    06:00 +29°C° 0 mm 6 mps 735 mmHg 66%
    07:00 +29°C° 0 mm 6 mps 736 mmHg 62%
    08:00 +30°C° 0 mm 6 mps 736 mmHg 58%
    09:00 +32°C° 0 mm 6 mps 737 mmHg 55%
    10:00 +34°C° 0 mm 5 mps 736 mmHg 49%
    11:00 +35°C° 0 mm 5 mps 736 mmHg 43%
    12:00 +37°C° 0 mm 5 mps 735 mmHg 38%
    13:00 +38°C° 0 mm 4 mps 734 mmHg 34%
    14:00 +40°C° 0 mm 4 mps 733 mmHg 31%
    15:00 +39°C° 0 mm 3 mps 732 mmHg 28%
    16:00 +40°C° 0 mm 3 mps 732 mmHg 27%
    17:00 +40°C° 0 mm 3 mps 732 mmHg 26%
    18:00 +40°C° 0 mm 3 mps 732 mmHg 25%
    19:00 +39°C° 0 mm 3 mps 732 mmHg 25%
    20:00 +39°C° 0 mm 3 mps 733 mmHg 26%
    21:00 +38°C° 0 mm 3 mps 733 mmHg 26%
    22:00 +37°C° 0 mm 5 mps 733 mmHg 32%
    23:00 +36°C° 0 mm 7 mps 733 mmHg 37%

    25 March, Monday

    Time Temperature Precipitation Wind Pressure Humidity
    00:00 +35°C° 0 mm 9 mps 733 mmHg 43%
    01:00 +34°C° 0 mm 8 mps 733 mmHg 48%
    02:00 +32°C° 0 mm 7 mps 733 mmHg 53%
    03:00 +30°C° 0 mm 7 mps 733 mmHg 58%
    04:00 +30°C° 0 mm 6 mps 733 mmHg 60%
    05:00 +29°C° 0 mm 6 mps 734 mmHg 61%
    06:00 +29°C° 0 mm 6 mps 735 mmHg 63%
    07:00 +30°C° 0 mm 6 mps 735 mmHg 60%
    08:00 +30°C° 0 mm 6 mps 736 mmHg 56%
    09:00 +32°C° 0 mm 6 mps 736 mmHg 52%
    10:00 +34°C° 0 mm 5 mps 736 mmHg 47%
    11:00 +35°C° 0 mm 5 mps 735 mmHg 42%
    12:00 +37°C° 0 mm 4 mps 735 mmHg 37%
    13:00 +38°C° 0 mm 4 mps 734 mmHg 34%
    14:00 +39°C° 0 mm 3 mps 733 mmHg 31%
    15:00 +40°C° 0 mm 3 mps 732 mmHg 28%
    16:00 +40°C° 0 mm 3 mps 732 mmHg 27%
    17:00 +40°C° 0 mm 3 mps 732 mmHg 26%
    18:00 +41°C° 0 mm 4 mps 732 mmHg 25%
    19:00 +41°C° 0 mm 4 mps 733 mmHg 26%
    20:00 +41°C° 0 mm 4 mps 733 mmHg 27%
    21:00 +40°C° 0 mm 5 mps 734 mmHg 28%
    22:00 +39°C° 0 mm 6 mps 734 mmHg 31%
    23:00 +38°C° 0 mm 6 mps 734 mmHg 35%

    26 March, Tuesday

    Time Temperature Precipitation Wind Pressure Humidity
    00:00 +36°C° 0 mm 7 mps 734 mmHg 38%
    01:00 +35°C° 0 mm 7 mps 733 mmHg 46%
    02:00 +33°C° 0 mm 7 mps 733 mmHg 53%
    03:00 +30°C° 0 mm 7 mps 733 mmHg 60%
    04:00 +30°C° 0 mm 7 mps 734 mmHg 63%
    05:00 +29°C° 0 mm 7 mps 734 mmHg 66%
    06:00 +29°C° 0 mm 7 mps 735 mmHg 69%
    07:00 +30°C° 0 mm 6 mps 736 mmHg 66%
    08:00 +32°C° 0 mm 6 mps 737 mmHg 62%
    09:00 +33°C° 0 mm 6 mps 738 mmHg 59%
    10:00 +34°C° 0 mm 5 mps 737 mmHg 54%
    11:00 +36°C° 0 mm 5 mps 736 mmHg 48%
    12:00 +37°C° 0 mm 4 mps 736 mmHg 42%
    13:00 +38°C° 0 mm 4 mps 735 mmHg 40%
    14:00 +38°C° 0 mm 3 mps 734 mmHg 38%
    15:00 +38°C° 0 mm 3 mps 734 mmHg 36%
    16:00 +39°C° 0 mm 3 mps 734 mmHg 34%
    17:00 +39°C° 0 mm 3 mps 734 mmHg 32%
    18:00 +40°C° 0 mm 4 mps 734 mmHg 31%
    19:00 +40°C° 0 mm 4 mps 734 mmHg 32%
    20:00 +38°C° 0 mm 4 mps 735 mmHg 33%
    21:00 +38°C° 0 mm 3 mps 735 mmHg 33%
    22:00 +37°C° 0 mm 4 mps 735 mmHg 36%
    23:00 +36°C° 0 mm 5 mps 735 mmHg 38%
    Show more